GW4708 Weather Reports


time (UTC)temp
C
wind
direction
speed
KPH
gust
KPH
rain 1hr
cm
rain 24hr
cm
rain mn
cm
humidity
%
barometer
mb
20260510204542 23 255 0.0 1.6 0.00 0.18 0.05 30 1022.0
20260510203011 22 114 0.0 3.2 0.00 0.18 0.05 30 1022.2
20260510201517 22 264 0.0 3.2 0.00 0.18 0.05 31 1022.4
20260510200024 21 329 0.0 3.2 0.00 0.18 0.05 29 1022.4
20260510194505 21 274 0.0 1.6 0.00 0.18 0.05 32 1022.7
20260510193008 21 322 0.0 1.6 0.00 0.18 0.05 33 1022.9
20260510191525 21 220 0.0 6.4 0.00 0.18 0.05 31 1023.1
20260510190032 20 238 0.0 4.8 0.00 0.18 0.05 31 1023.1
20260510184523 20 299 0.0 11.3 0.00 0.18 0.05 31 1023.3
20260510183033 20 302 0.0 4.8 0.00 0.18 0.05 32 1023.4
20260510181534 19 328 0.0 6.4 0.00 0.18 0.05 34 1023.5
20260510180027 19 284 0.0 1.6 0.00 0.18 0.05 32 1023.6
20260510174520 20 41 0.0 1.6 0.00 0.18 0.05 36 1023.8
20260510173026 18 219 0.0 1.6 0.00 0.18 0.05 35 1023.7
20260510171528 18 52 0.0 3.2 0.00 0.18 0.05 37 1024.0
20260510170015 18 328 0.0 1.6 0.00 0.18 0.05 41 1023.9
20260510164522 18 101 0.0 0.0 0.00 0.18 0.05 40 1023.8
20260510163022 17 173 0.0 1.6 0.00 0.18 0.05 41 1023.9
20260510161528 16 147 0.0 1.6 0.00 0.18 0.05 44 1023.9
20260510160030 15 122 0.0 1.6 0.00 0.18 0.05 45 1023.7
20260510154514 15 58 0.0 1.6 0.00 0.18 0.05 46 1023.7
20260510153033 15 124 0.0 1.6 0.00 0.18 0.05 47 1023.6
20260510151522 14 89 0.0 0.0 0.00 0.18 0.05 52 1023.1
20260510150026 13 164 0.0 1.6 0.00 0.18 0.05 54 1023.3
20260510144541 13 127 0.0 1.6 0.00 0.18 0.05 53 1023.4
20260510143015 13 140 0.0 1.6 0.00 0.18 0.05 54 1023.1
20260510141523 12 104 0.0 0.0 0.00 0.18 0.05 53 1023.0
20260510140029 12 119 0.0 1.6 0.00 0.18 0.05 54 1022.5
20260510134527 12 44 0.0 1.6 0.00 0.18 0.05 54 1022.5
20260510133029 12 8 0.0 0.0 0.00 0.18 0.05 54 1022.2
20260510131519 12 20 0.0 1.6 0.00 0.18 0.05 54 1021.7
20260510130024 12 96 0.0 3.2 0.00 0.18 0.05 54 1021.5
20260510124526 12 39 0.0 1.6 0.00 0.18 0.05 55 1021.0
20260510123032 12 237 0.0 3.2 0.00 0.18 0.05 54 1020.8
20260510121530 12 68 0.0 1.6 0.00 0.18 0.05 53 1020.5
20260510120020 12 173 0.0 3.2 0.00 0.18 0.05 55 1020.2
20260510114529 12 1 0.0 1.6 0.00 0.18 0.05 55 1019.5
20260510113029 12 338 0.0 4.8 0.00 0.18 0.05 58 1019.2
20260510111530 12 207 0.0 6.4 0.00 0.18 0.05 60 1019.4
20260510110023 12 205 0.0 9.7 0.00 0.18 0.05 61 1018.8
20260510104522 12 160 1.6 12.9 0.00 0.18 0.05 63 1018.6
20260510103020 12 139 0.0 6.4 0.00 0.18 0.05 66 1018.3
20260510101513 12 51 0.0 4.8 0.03 0.18 0.05 67 1018.3
20260510100016 12 328 0.0 6.4 0.03 0.18 0.05 69 1018.5
20260510094520 13 82 0.0 1.6 0.05 0.18 0.05 69 1018.7
20260510093024 13 51 0.0 3.2 0.05 0.18 0.05 69 1018.7
20260510091524 13 8 0.0 1.6 0.03 0.15 0.03 67 1018.8
20260510090014 14 16 0.0 1.6 0.03 0.15 0.03 69 1018.6
20260510084520 14 340 0.0 1.6 0.00 0.13 0.00 68 1018.4
20260510083034 13 342 0.0 1.6 0.00 0.13 0.00 70 1018.1
20260510081523 13 6 0.0 0.0 0.00 0.13 0.00 70 1018.0
20260510080024 13 342 0.0 0.0 0.00 0.13 0.00 68 1017.5
20260510074515 14 126 0.0 0.0 0.00 0.13 0.00 67 1017.1
20260510073026 14 323 0.0 1.6 0.00 0.13 0.00 65 1016.7
20260510071539 15 303 0.0 1.6 0.00 0.13 0.00 64 1016.7
20260510070030 15 301 0.0 1.6 0.00 0.13 0.00 64 1016.3
20260510064528 15 13 0.0 1.6 0.00 0.13 0.00 64 1015.9
20260510063019 15 342 0.0 0.0 0.00 0.13 0.00 63 1015.9
20260510061522 15 331 0.0 1.6 0.00 0.13 0.00 63 1016.2
20260510060033 16 240 0.0 1.6 0.00 0.13 0.00 62 1015.6
20260510054527 16 250 0.0 9.7 0.00 0.13 0.00 61 1015.4
20260510053027 17 98 0.0 1.6 0.00 0.13 0.00 60 1015.1
20260510051520 17 84 0.0 1.6 0.00 0.13 0.00 58 1015.1
20260510050022 17 131 0.0 1.6 0.00 0.13 0.00 57 1015.1
20260510044530 17 76 0.0 8.0 0.00 0.13 0.13 57 1014.7
20260510043026 17 40 0.0 4.8 0.00 0.13 0.13 55 1014.4
20260510041526 17 159 0.0 6.4 0.00 0.13 0.13 55 1014.5
20260510040026 17 229 0.0 3.2 0.00 0.13 0.13 56 1014.0
20260510034504 17 311 0.0 0.0 0.00 0.13 0.13 57 1013.8
20260510033010 17 31 0.0 1.6 0.00 0.13 0.13 58 1013.5
20260510031512 17 332 0.0 0.0 0.00 0.13 0.13 59 1013.3
20260510030018 17 340 0.0 0.0 0.00 0.13 0.13 60 1013.0
20260510024502 17 294 0.0 1.6 0.00 0.13 0.13 60 1012.4
20260510023007 17 23 0.0 1.6 0.00 0.13 0.13 62 1011.9
20260510021508 17 97 0.0 0.0 0.00 0.13 0.13 65 1011.7
20260510020016 17 97 0.0 0.0 0.00 0.13 0.13 61 1011.7
20260510014523 18 230 0.0 0.0 0.13 0.13 0.13 58 1011.3
20260510013006 18 143 0.0 3.2 0.13 0.13 0.13 56 1011.1
20260510011511 18 96 0.0 3.2 0.13 0.13 0.13 60 1010.5
20260510010012 20 131 0.0 3.2 0.13 0.13 0.13 59 1010.1
20260510004516 22 342 1.6 6.4 0.00 0.00 0.00 45 1012.0
20260510003025 23 84 0.0 3.2 0.00 0.00 0.00 40 1010.9
20260510001502 23 111 1.6 14.5 0.00 0.00 0.00 40 1009.9
20260510000007 24 75 0.0 3.2 0.00 0.00 0.00 41 1008.9
20260509234512 24 48 0.0 0.0 0.00 0.00 0.00 40 1008.6
20260509233016 24 156 0.0 0.0 0.00 0.00 0.00 42 1008.5
20260509231528 23 72 0.0 1.6 0.00 0.00 0.00 44 1008.7
20260509230006 24 65 0.0 6.4 0.00 0.00 0.00 43 1008.6
20260509224511 25 326 0.0 1.6 0.00 0.00 0.00 40 1009.0
20260509223018 25 265 0.0 1.6 0.00 0.00 0.00 39 1008.9
20260509221530 26 356 0.0 1.6 0.00 0.00 0.00 39 1008.9
20260509220023 26 61 0.0 6.4 0.00 0.00 0.00 37 1008.8
20260509213012 27 79 0.0 1.6 0.00 0.00 0.00 35 1008.7
20260509211514 27 290 0.0 1.6 0.00 0.00 0.00 35 1008.7
20260509210020 28 319 0.0 3.2 0.00 0.00 0.00 34 1008.7